Weather History for Camden, SC

Change the Weather History Date:

Sunday, January 20, 2013

  Actual Average (KSSC) Record (KSSC)
Temperature  
Mean Temperature 50 °F -  
Max Temperature 66 °F 53 °F 86 °F (2003)
Min Temperature 33 °F 32 °F 21 °F (1997)
Degree Days  
Heating Degree Days 16    
Moisture  
Dew Point 35 °F    
Average Humidity 66    
Maximum Humidity 93    
Minimum Humidity 28    
Precipitation  
Precipitation 0.00 in - - ()
Sea Level Pressure  
Sea Level Pressure 30.12 in    
Wind  
Wind Speed 4 mph (SW)    
Max Wind Speed 10 mph    
Max Gust Speed -    
Visibility 10 miles    
Events      
Averages and records for this station are not official NWS values.
T = Trace of Precipitation, MM = Missing Value Source: NWS Daily Summary

Daily Weather History Graph

Daily Weather History Graph

Search for Another Location

Airport:

Trip Planner

Search our weather history database for the weather conditions in past years. The results will help you decide how hot, cold, wet, or windy it might be!

Date:

Astronomy

Jan. 20, 2013 Rise Set
Actual Time 7:26 AM EST 5:40 PM EST
Civil Twilight 6:59 AM EST 6:07 PM EST
Nautical Twilight 6:28 AM EST 6:38 PM EST
Astronomical Twilight 5:58 AM EST 7:08 PM EST
Moon 12:40 PM EST (1/20) 1:58 AM EST (1/20)
Length of Visible Light 11h 08m
Length of Day
10h 14m
Waxing Gibbous, 66% of the Moon is Illuminated
Jan 20
Waxing Gibbous
Jan 26
Full
Feb 3
Last Quarter
Feb 10
New
Feb 17
First Quarter

Hourly Weather History & Observations

Time (EST) Temp. Windchill Dew Point Humidity Pressure Visibility Wind Dir Wind Speed Gust Speed Precip Events Conditions
12:15 AM 42.8 °F 41.1 °F 37.4 °F 81% 30.21 in 10.0 mi WSW 3.5 mph - 0.00 in   Clear
12:35 AM 41.0 °F 39.0 °F 37.4 °F 87% 30.21 in 10.0 mi SW 3.5 mph - 0.00 in   Clear
12:55 AM 42.8 °F 41.1 °F 37.4 °F 81% 30.21 in 10.0 mi WSW 3.5 mph - 0.00 in   Clear
1:15 AM 41.0 °F 39.0 °F 37.4 °F 87% 30.20 in 10.0 mi SW 3.5 mph - 0.00 in   Clear
1:35 AM 41.0 °F 38.0 °F 37.4 °F 87% 30.19 in 10.0 mi SW 4.6 mph - 0.00 in   Clear
1:55 AM 37.4 °F 33.8 °F 35.6 °F 93% 30.19 in 10.0 mi SW 4.6 mph - 0.00 in   Clear
2:15 AM 41.0 °F 39.0 °F 35.6 °F 81% 30.19 in 10.0 mi SW 3.5 mph - 0.00 in   Clear
2:35 AM 41.0 °F - 35.6 °F 81% 30.19 in 10.0 mi Calm Calm - 0.00 in   Clear
2:55 AM 39.2 °F 37.0 °F 35.6 °F 87% 30.18 in 10.0 mi SW 3.5 mph - 0.00 in   Clear
3:15 AM 41.0 °F 38.0 °F 37.4 °F 87% 30.18 in 10.0 mi SW 4.6 mph - 0.00 in   Clear
3:35 AM 39.2 °F 35.9 °F 35.6 °F 87% 30.17 in 10.0 mi SW 4.6 mph - 0.00 in   Clear
3:55 AM 41.0 °F 37.1 °F 37.4 °F 87% 30.17 in 10.0 mi SSW 5.8 mph - 0.00 in   Clear
4:15 AM 42.8 °F 40.1 °F 37.4 °F 81% 30.17 in 10.0 mi SSW 4.6 mph - 0.00 in   Clear
4:35 AM 39.2 °F 37.0 °F 35.6 °F 87% 30.17 in 10.0 mi SW 3.5 mph - 0.00 in   Clear
4:55 AM 35.6 °F 32.8 °F 33.8 °F 93% 30.16 in 10.0 mi SW 3.5 mph - 0.00 in   Clear
5:15 AM 35.6 °F - 33.8 °F 93% 30.16 in 10.0 mi Calm Calm - 0.00 in   Clear
5:35 AM 39.2 °F 37.0 °F 37.4 °F 93% 30.16 in 10.0 mi SSW 3.5 mph - 0.00 in   Clear
5:55 AM 37.4 °F 34.9 °F 35.6 °F 93% 30.16 in 10.0 mi SSW 3.5 mph - 0.00 in   Clear
6:15 AM 37.4 °F 34.9 °F 35.6 °F 93% 30.15 in 10.0 mi SSW 3.5 mph - 0.00 in   Clear
6:35 AM 35.6 °F - 33.8 °F 93% 30.16 in 10.0 mi Calm Calm - 0.00 in   Clear
6:55 AM 33.8 °F - 32.0 °F 93% 30.16 in 10.0 mi Calm Calm - 0.00 in   Clear
7:15 AM 39.2 °F 35.9 °F 37.4 °F 93% 30.16 in 10.0 mi South 4.6 mph - 0.00 in   Clear
7:35 AM 39.2 °F 35.9 °F 37.4 °F 93% 30.16 in 10.0 mi SSW 4.6 mph - 0.00 in   Clear
7:55 AM 39.2 °F 37.0 °F 37.4 °F 93% 30.16 in 9.0 mi SSW 3.5 mph - 0.00 in   Clear
8:15 AM 41.0 °F 38.0 °F 37.4 °F 87% 30.17 in 9.0 mi SSW 4.6 mph - 0.00 in   Clear
8:35 AM 42.8 °F 39.3 °F 37.4 °F 81% 30.17 in 10.0 mi SSW 5.8 mph - 0.00 in   Clear
8:55 AM 42.8 °F 39.3 °F 37.4 °F 81% 30.16 in 10.0 mi SSW 5.8 mph - 0.00 in   Clear
9:15 AM 44.6 °F 40.7 °F 37.4 °F 76% 30.17 in 10.0 mi WSW 6.9 mph - 0.00 in   Clear
9:35 AM 44.6 °F 40.7 °F 37.4 °F 76% 30.17 in 10.0 mi WSW 6.9 mph - 0.00 in   Clear
9:55 AM 48.2 °F - 35.6 °F 62% 30.17 in 10.0 mi SW 6.9 mph - 0.00 in   Clear
10:15 AM 50.0 °F - 35.6 °F 58% 30.17 in 10.0 mi SW 6.9 mph - 0.00 in   Clear
10:35 AM 51.8 °F - 35.6 °F 54% 30.17 in 10.0 mi WSW 9.2 mph - 0.00 in   Clear
10:55 AM 53.6 °F - 35.6 °F 51% 30.16 in 10.0 mi WNW 4.6 mph - 0.00 in   Clear
11:15 AM 55.4 °F - 33.8 °F 44% 30.15 in 10.0 mi West 5.8 mph - 0.00 in   Clear
11:35 AM 57.2 °F - 32.0 °F 38% 30.14 in 10.0 mi WSW 9.2 mph - 0.00 in   Clear
11:55 AM 59.0 °F - 32.0 °F 36% 30.13 in 10.0 mi WSW 10.4 mph - 0.00 in   Clear
12:15 PM 60.8 °F - 32.0 °F 34% 30.11 in 10.0 mi WSW 8.1 mph - 0.00 in   Clear
12:35 PM 60.8 °F - 32.0 °F 34% 30.10 in 10.0 mi West 6.9 mph - 0.00 in   Clear
12:55 PM 62.6 °F - 32.0 °F 32% 30.09 in 10.0 mi West 5.8 mph - 0.00 in   Clear
1:15 PM 62.6 °F - 32.0 °F 32% 30.08 in 10.0 mi SW 8.1 mph - 0.00 in   Clear
1:55 PM 64.4 °F - 32.0 °F 30% 30.06 in 10.0 mi WSW 8.1 mph - 0.00 in   Clear
2:15 PM 64.4 °F - 32.0 °F 30% 30.05 in 10.0 mi SSW 5.8 mph - 0.00 in   Clear
2:35 PM 64.4 °F - 32.0 °F 30% 30.05 in 10.0 mi SW 10.4 mph - 0.00 in   Clear
2:55 PM 64.4 °F - 32.0 °F 30% 30.05 in 10.0 mi WSW 6.9 mph - 0.00 in   Clear
3:15 PM 64.4 °F - 32.0 °F 30% 30.04 in 10.0 mi West 8.1 mph - 0.00 in   Clear
3:35 PM 66.2 °F - 32.0 °F 28% 30.04 in 10.0 mi SW 6.9 mph - 0.00 in   Clear
3:55 PM 64.4 °F - 32.0 °F 30% 30.04 in 10.0 mi West 6.9 mph - 0.00 in   Clear
4:15 PM 64.4 °F - 33.8 °F 32% 30.05 in 10.0 mi WSW 9.2 mph - 0.00 in   Clear
4:35 PM 64.4 °F - 33.8 °F 32% 30.05 in 10.0 mi West 8.1 mph - 0.00 in   Clear
4:55 PM 64.4 °F - 33.8 °F 32% 30.05 in 10.0 mi WNW 5.8 mph - 0.00 in   Clear
5:15 PM 62.6 °F - 35.6 °F 37% 30.05 in 10.0 mi WNW 5.8 mph - 0.00 in   Clear
5:35 PM 60.8 °F - 35.6 °F 39% 30.06 in 10.0 mi West 3.5 mph - 0.00 in   Clear
5:55 PM 59.0 °F - 35.6 °F 42% 30.06 in 10.0 mi Calm Calm - 0.00 in   Clear
6:15 PM 55.4 °F - 37.4 °F 51% 30.07 in 10.0 mi Calm Calm - 0.00 in   Clear
6:35 PM 55.4 °F - 37.4 °F 51% 30.07 in 10.0 mi Calm Calm - 0.00 in   Clear
6:55 PM 51.8 °F - 37.4 °F 58% 30.07 in 10.0 mi Calm Calm - 0.00 in   Clear
7:15 PM 48.2 °F - 37.4 °F 66% 30.08 in 10.0 mi Calm Calm - 0.00 in   Clear
7:35 PM 48.2 °F - 37.4 °F 66% 30.08 in 10.0 mi Calm Calm - 0.00 in   Clear
7:55 PM 46.4 °F - 37.4 °F 71% 30.08 in 10.0 mi Calm Calm - 0.00 in   Clear
8:15 PM 46.4 °F - 37.4 °F 71% 30.08 in 10.0 mi Calm Calm - 0.00 in   Clear
8:35 PM 46.4 °F - 37.4 °F 71% 30.09 in 10.0 mi Calm Calm - 0.00 in   Clear
8:55 PM 44.6 °F - 37.4 °F 76% 30.09 in 10.0 mi Calm Calm - 0.00 in   Clear
9:15 PM 44.6 °F - 37.4 °F 76% 30.09 in 10.0 mi Calm Calm - 0.00 in   Clear
9:35 PM 44.6 °F - 37.4 °F 76% 30.10 in 10.0 mi Calm Calm - 0.00 in   Clear
9:55 PM 42.8 °F - 37.4 °F 81% 30.10 in 10.0 mi Calm Calm - 0.00 in   Clear
10:15 PM 42.8 °F - 37.4 °F 81% 30.10 in 10.0 mi Calm Calm - 0.00 in   Clear
10:35 PM 42.8 °F - 35.6 °F 76% 30.11 in 10.0 mi Calm Calm - 0.00 in   Clear
10:55 PM 41.0 °F - 35.6 °F 81% 30.10 in 10.0 mi Calm Calm - 0.00 in   Clear
11:15 PM 39.2 °F 34.2 °F 35.6 °F 87% 30.11 in 10.0 mi NNW 6.9 mph - 0.00 in   Clear
11:35 PM 41.0 °F - 35.6 °F 81% 30.10 in 10.0 mi Calm Calm - 0.00 in   Clear
11:55 PM 42.8 °F - 35.6 °F 76% 30.10 in 10.0 mi Calm Calm - 0.00 in   Clear